Year,Month,Day,Hour,Minute,Value (Times are PST for temperature in C)
2011,07,02,00,00,11.10
2011,07,02,00,01,11.10
2011,07,02,00,02,11.10
2011,07,02,00,03,11.10
2011,07,02,00,04,11.10
2011,07,02,00,05,11.00
2011,07,02,00,06,11.00
2011,07,02,00,07,11.00
2011,07,02,00,08,11.00
2011,07,02,00,09,11.00
2011,07,02,00,10,11.00
2011,07,02,00,11,11.00
2011,07,02,00,12,11.00
2011,07,02,00,13,11.00
2011,07,02,00,14,11.00
2011,07,02,00,15,10.90
2011,07,02,00,16,10.90
2011,07,02,00,17,10.90
2011,07,02,00,18,10.90
2011,07,02,00,19,10.90
2011,07,02,00,20,10.90
2011,07,02,00,21,10.90
2011,07,02,00,22,10.90
2011,07,02,00,23,10.90
2011,07,02,00,24,10.80
2011,07,02,00,25,10.80
2011,07,02,00,26,10.80
2011,07,02,00,27,10.80
2011,07,02,00,28,10.80
2011,07,02,00,29,10.80
2011,07,02,00,30,10.80
2011,07,02,00,31,10.80
2011,07,02,00,32,10.80
2011,07,02,00,33,10.80
2011,07,02,00,34,10.80
2011,07,02,00,35,10.80
2011,07,02,00,36,10.80
2011,07,02,00,37,10.80
2011,07,02,00,38,10.80
2011,07,02,00,39,10.80
2011,07,02,00,40,10.80
2011,07,02,00,41,10.80
2011,07,02,00,42,10.80
2011,07,02,00,43,10.80
2011,07,02,00,44,10.80
2011,07,02,00,45,10.80
2011,07,02,00,46,10.80
2011,07,02,00,47,10.80
2011,07,02,00,48,10.80
2011,07,02,00,49,10.80
2011,07,02,00,50,10.80
2011,07,02,00,51,10.80
2011,07,02,00,52,10.80
2011,07,02,00,53,10.80
2011,07,02,00,54,10.80
2011,07,02,00,55,10.80
2011,07,02,00,56,10.80
2011,07,02,00,57,10.80
2011,07,02,00,58,10.80
2011,07,02,00,59,10.80
2011,07,02,01,00,10.80
2011,07,02,01,01,10.80
2011,07,02,01,02,10.90
2011,07,02,01,03,10.90
2011,07,02,01,04,10.90
2011,07,02,01,05,10.90
2011,07,02,01,06,10.90
2011,07,02,01,07,10.90
2011,07,02,01,08,10.90
2011,07,02,01,09,10.90
2011,07,02,01,10,10.90
2011,07,02,01,11,10.90
2011,07,02,01,12,10.90
2011,07,02,01,13,10.90
2011,07,02,01,14,10.90
2011,07,02,01,15,10.90
2011,07,02,01,16,10.90
2011,07,02,01,17,10.90
2011,07,02,01,18,10.90
2011,07,02,01,19,10.90
2011,07,02,01,20,10.90
2011,07,02,01,21,10.90
2011,07,02,01,22,10.90
2011,07,02,01,23,10.90
2011,07,02,01,24,10.90
2011,07,02,01,25,10.80
2011,07,02,01,26,10.80
2011,07,02,01,27,10.80
2011,07,02,01,28,10.80
2011,07,02,01,29,10.80
2011,07,02,01,30,10.80
2011,07,02,01,31,10.80
2011,07,02,01,32,10.80
2011,07,02,01,33,10.80
2011,07,02,01,34,10.80
2011,07,02,01,35,10.80
2011,07,02,01,36,10.80
2011,07,02,01,37,10.80
2011,07,02,01,38,10.80
2011,07,02,01,39,10.80
2011,07,02,01,40,10.80
2011,07,02,01,41,10.80
2011,07,02,01,42,10.80
2011,07,02,01,43,10.80
2011,07,02,01,44,10.80
2011,07,02,01,45,10.80
2011,07,02,01,46,10.80
2011,07,02,01,47,10.80
2011,07,02,01,48,10.80
2011,07,02,01,49,10.80
2011,07,02,01,50,10.80
2011,07,02,01,51,10.80
2011,07,02,01,52,10.70
2011,07,02,01,53,10.70
2011,07,02,01,54,10.70
2011,07,02,01,55,10.70
2011,07,02,01,56,10.70
2011,07,02,01,57,10.70
2011,07,02,01,58,10.60
2011,07,02,01,59,10.60
2011,07,02,02,00,10.60
2011,07,02,02,01,10.60
2011,07,02,02,02,10.60
2011,07,02,02,03,10.60
2011,07,02,02,04,10.60
2011,07,02,02,05,10.60
2011,07,02,02,06,10.50
2011,07,02,02,07,10.50
2011,07,02,02,08,10.50
2011,07,02,02,09,10.40
2011,07,02,02,10,10.40
2011,07,02,02,11,10.40
2011,07,02,02,12,10.40
2011,07,02,02,13,10.40
2011,07,02,02,14,10.40
2011,07,02,02,15,10.40
2011,07,02,02,16,10.40
2011,07,02,02,17,10.30
2011,07,02,02,18,10.30
2011,07,02,02,19,10.30
2011,07,02,02,20,10.30
2011,07,02,02,21,10.30
2011,07,02,02,22,10.30
2011,07,02,02,23,10.30
2011,07,02,02,24,10.30
2011,07,02,02,25,10.30
2011,07,02,02,26,10.20
2011,07,02,02,27,10.20
2011,07,02,02,28,10.20
2011,07,02,02,29,10.20
2011,07,02,02,30,10.20
2011,07,02,02,31,10.20
2011,07,02,02,32,10.10
2011,07,02,02,33,10.10
2011,07,02,02,34,10.10
2011,07,02,02,35,10.10
2011,07,02,02,36,10.10
2011,07,02,02,37,10.10
2011,07,02,02,38,10.10
2011,07,02,02,39,10.10
2011,07,02,02,40,10.10
2011,07,02,02,41,10.10
2011,07,02,02,42,10.10
2011,07,02,02,43,10.10
2011,07,02,02,44,10.10
2011,07,02,02,45,10.10
2011,07,02,02,46,10.10
2011,07,02,02,47,10.10
2011,07,02,02,48,10.10
2011,07,02,02,49,10.10
2011,07,02,02,50,10.10
2011,07,02,02,51,10.10
2011,07,02,02,52,10.10
2011,07,02,02,53,10.10
2011,07,02,02,54,10.10
2011,07,02,02,55,10.00
2011,07,02,02,56,10.00
2011,07,02,02,57,10.00
2011,07,02,02,58,10.00
2011,07,02,02,59,10.00
2011,07,02,03,00,10.00
2011,07,02,03,01,10.10
2011,07,02,03,02,10.10
2011,07,02,03,03,10.10
2011,07,02,03,04,10.10
2011,07,02,03,05,10.10
2011,07,02,03,06,10.10
2011,07,02,03,07,10.10
2011,07,02,03,08,10.10
2011,07,02,03,09,10.10
2011,07,02,03,10,10.10
2011,07,02,03,11,10.10
2011,07,02,03,12,10.10
2011,07,02,03,13,10.10
2011,07,02,03,14,10.10
2011,07,02,03,15,10.10
2011,07,02,03,16,10.10
2011,07,02,03,17,10.10
2011,07,02,03,18,10.10
2011,07,02,03,19,10.00
2011,07,02,03,20,10.00
2011,07,02,03,21,10.00
2011,07,02,03,22,10.00
2011,07,02,03,23,10.00
2011,07,02,03,24,9.90
2011,07,02,03,25,9.90
2011,07,02,03,26,9.90
2011,07,02,03,27,9.90
2011,07,02,03,28,9.90
2011,07,02,03,29,9.80
2011,07,02,03,30,9.80
2011,07,02,03,31,9.80
2011,07,02,03,32,9.80
2011,07,02,03,33,9.80
2011,07,02,03,34,9.80
2011,07,02,03,35,9.80
2011,07,02,03,36,9.70
2011,07,02,03,37,9.70
2011,07,02,03,38,9.70
2011,07,02,03,39,9.70
2011,07,02,03,40,9.70
2011,07,02,03,41,9.70
2011,07,02,03,42,9.70
2011,07,02,03,43,9.70
2011,07,02,03,44,9.70
2011,07,02,03,45,9.70
2011,07,02,03,49,9.70
2011,07,02,03,50,9.70
2011,07,02,03,51,9.70
2011,07,02,03,52,9.70
2011,07,02,03,53,9.70
2011,07,02,03,54,9.70
2011,07,02,03,55,9.70
2011,07,02,03,56,9.60
2011,07,02,03,57,9.60
2011,07,02,03,58,9.60
2011,07,02,03,59,9.60
2011,07,02,04,00,9.60
2011,07,02,04,01,9.60
2011,07,02,04,02,9.50
2011,07,02,04,03,9.50
2011,07,02,04,04,9.50
2011,07,02,04,05,9.40
2011,07,02,04,06,9.40
2011,07,02,04,07,9.40
2011,07,02,04,08,9.40
2011,07,02,04,09,9.30
2011,07,02,04,10,9.30
2011,07,02,04,11,9.30
2011,07,02,04,12,9.30
2011,07,02,04,13,9.30
2011,07,02,04,14,9.30
2011,07,02,04,15,9.20
2011,07,02,04,16,9.20
2011,07,02,04,17,9.20
2011,07,02,04,18,9.20
2011,07,02,04,19,9.20
2011,07,02,04,20,9.20
2011,07,02,04,21,9.10
2011,07,02,04,22,9.10
2011,07,02,04,23,9.10
2011,07,02,04,24,9.10
2011,07,02,04,25,9.10
2011,07,02,04,26,9.10
2011,07,02,04,27,9.10
2011,07,02,04,28,9.00
2011,07,02,04,29,9.00
2011,07,02,04,30,9.00
2011,07,02,04,31,9.00
2011,07,02,04,32,9.00
2011,07,02,04,33,8.90
2011,07,02,04,34,8.90
2011,07,02,04,35,8.90
2011,07,02,04,36,8.90
2011,07,02,04,37,8.90
2011,07,02,04,38,8.90
2011,07,02,04,39,8.90
2011,07,02,04,40,8.80
2011,07,02,04,41,8.80
2011,07,02,04,42,8.80
2011,07,02,04,43,8.80
2011,07,02,04,44,8.80
2011,07,02,04,45,8.80
2011,07,02,04,46,8.80
2011,07,02,04,47,8.80
2011,07,02,04,48,8.70
2011,07,02,04,49,8.70
2011,07,02,04,50,8.70
2011,07,02,04,51,8.70
2011,07,02,04,52,8.70
2011,07,02,04,53,8.70
2011,07,02,04,54,8.70
2011,07,02,04,55,8.70
2011,07,02,04,56,8.70
2011,07,02,04,57,8.70
2011,07,02,04,58,8.70
2011,07,02,04,59,8.70
2011,07,02,05,00,8.70
2011,07,02,05,01,8.70
2011,07,02,05,02,8.70
2011,07,02,05,03,8.70
2011,07,02,05,04,8.70
2011,07,02,05,05,8.70
2011,07,02,05,06,8.70
2011,07,02,05,07,8.70
2011,07,02,05,08,8.70
2011,07,02,05,09,8.70
2011,07,02,05,10,8.70
2011,07,02,05,11,8.70
2011,07,02,05,12,8.70
2011,07,02,05,13,8.70
2011,07,02,05,14,8.70
2011,07,02,05,15,8.70
2011,07,02,05,16,8.70
2011,07,02,05,17,8.60
2011,07,02,05,18,8.60
2011,07,02,05,19,8.60
2011,07,02,05,20,8.60
2011,07,02,05,21,8.60
2011,07,02,05,22,8.60
2011,07,02,05,23,8.60
2011,07,02,05,24,8.60
2011,07,02,05,25,8.60
2011,07,02,05,26,8.60
2011,07,02,05,27,8.70
2011,07,02,05,28,8.70
2011,07,02,05,29,8.70
2011,07,02,05,30,8.70
2011,07,02,05,31,8.70
2011,07,02,05,32,8.70
2011,07,02,05,33,8.70
2011,07,02,05,34,8.70
2011,07,02,05,35,8.70
2011,07,02,05,36,8.70
2011,07,02,05,37,8.70
2011,07,02,05,38,8.70
2011,07,02,05,39,8.70
2011,07,02,05,40,8.70
2011,07,02,05,41,8.70
2011,07,02,05,42,8.70
2011,07,02,05,43,8.70
2011,07,02,05,44,8.70
2011,07,02,05,45,8.70
2011,07,02,05,46,8.70
2011,07,02,05,47,8.80
2011,07,02,05,48,8.80
2011,07,02,05,49,8.80
2011,07,02,05,50,8.80
2011,07,02,05,51,8.80
2011,07,02,05,52,8.80
2011,07,02,05,53,8.80
2011,07,02,05,54,8.80
2011,07,02,05,55,8.90
2011,07,02,05,56,8.90
2011,07,02,05,57,8.90
2011,07,02,05,58,9.00
2011,07,02,05,59,9.00
2011,07,02,06,00,9.10
2011,07,02,06,01,9.10
2011,07,02,06,02,9.20
2011,07,02,06,03,9.20
2011,07,02,06,04,9.30
2011,07,02,06,05,9.40
2011,07,02,06,06,9.40
2011,07,02,06,07,9.50
2011,07,02,06,08,9.60
2011,07,02,06,09,9.60
2011,07,02,06,10,9.60
2011,07,02,06,11,9.70
2011,07,02,06,12,9.70
2011,07,02,06,13,9.70
2011,07,02,06,14,9.80
2011,07,02,06,15,9.80
2011,07,02,06,16,9.90
2011,07,02,06,17,9.90
2011,07,02,06,18,9.90
2011,07,02,06,19,9.90
2011,07,02,06,20,10.00
2011,07,02,06,21,10.00
2011,07,02,06,22,10.10
2011,07,02,06,23,10.10
2011,07,02,06,24,10.10
2011,07,02,06,25,10.10
2011,07,02,06,26,10.20
2011,07,02,06,27,10.20
2011,07,02,06,28,10.20
2011,07,02,06,29,10.30
2011,07,02,06,30,10.30
2011,07,02,06,31,10.30
2011,07,02,06,32,10.30
2011,07,02,06,33,10.30
2011,07,02,06,34,10.30
2011,07,02,06,35,10.40
2011,07,02,06,36,10.40
2011,07,02,06,37,10.40
2011,07,02,06,38,10.40
2011,07,02,06,39,10.50
2011,07,02,06,40,10.50
2011,07,02,06,41,10.50
2011,07,02,06,42,10.60
2011,07,02,06,43,10.60
2011,07,02,06,44,10.70
2011,07,02,06,45,10.70
2011,07,02,06,46,10.80
2011,07,02,06,47,10.80
2011,07,02,06,48,10.80
2011,07,02,06,49,10.90
2011,07,02,06,50,10.90
2011,07,02,06,51,11.00
2011,07,02,06,52,11.00
2011,07,02,06,53,11.00
2011,07,02,06,54,11.10
2011,07,02,06,55,11.10
2011,07,02,06,56,11.20
2011,07,02,06,57,11.20
2011,07,02,06,58,11.30
2011,07,02,06,59,11.30
2011,07,02,07,00,11.30
2011,07,02,07,01,11.30
2011,07,02,07,02,11.40
2011,07,02,07,03,11.40
2011,07,02,07,04,11.50
2011,07,02,07,05,11.50
2011,07,02,07,06,11.60
2011,07,02,07,07,11.70
2011,07,02,07,08,11.80
2011,07,02,07,09,11.90
2011,07,02,07,10,12.00
2011,07,02,07,11,12.10
2011,07,02,07,12,12.20
2011,07,02,07,13,12.30
2011,07,02,07,14,12.40
2011,07,02,07,15,12.50
2011,07,02,07,16,12.60
2011,07,02,07,17,12.70
2011,07,02,07,18,12.80
2011,07,02,07,19,12.90
2011,07,02,07,20,13.00
2011,07,02,07,21,13.10
2011,07,02,07,22,13.10
2011,07,02,07,23,13.20
2011,07,02,07,24,13.20
2011,07,02,07,25,13.30
2011,07,02,07,26,13.30
2011,07,02,07,27,13.30
2011,07,02,07,28,13.40
2011,07,02,07,29,13.40
2011,07,02,07,30,13.40
2011,07,02,07,31,13.50
2011,07,02,07,32,13.50
2011,07,02,07,33,13.60
2011,07,02,07,34,13.70
2011,07,02,07,35,13.80
2011,07,02,07,36,14.00
2011,07,02,07,37,14.10
2011,07,02,07,38,14.20
2011,07,02,07,39,14.30
2011,07,02,07,40,14.40
2011,07,02,07,41,14.40
2011,07,02,07,42,14.40
2011,07,02,07,43,14.50
2011,07,02,07,44,14.50
2011,07,02,07,45,14.60
2011,07,02,07,46,14.70
2011,07,02,07,47,14.80
2011,07,02,07,48,14.90
2011,07,02,07,49,15.00
2011,07,02,07,50,15.00
2011,07,02,07,51,15.00
2011,07,02,07,52,15.00
2011,07,02,07,53,15.00
2011,07,02,07,54,15.00
2011,07,02,07,55,15.00
2011,07,02,07,56,15.00
2011,07,02,07,57,15.00
2011,07,02,07,58,15.00
2011,07,02,07,59,15.00
2011,07,02,08,00,15.10
2011,07,02,08,01,15.20
2011,07,02,08,02,15.30
2011,07,02,08,03,15.30
2011,07,02,08,04,15.20
2011,07,02,08,05,15.10
2011,07,02,08,06,15.00
2011,07,02,08,07,14.90
2011,07,02,08,08,14.80
2011,07,02,08,09,14.80
2011,07,02,08,10,14.70
2011,07,02,08,11,14.70
2011,07,02,08,12,14.70
2011,07,02,08,13,14.70
2011,07,02,08,14,14.70
2011,07,02,08,15,14.80
2011,07,02,08,16,14.80
2011,07,02,08,17,15.00
2011,07,02,08,18,15.00
2011,07,02,08,19,15.00
2011,07,02,08,20,15.00
2011,07,02,08,21,15.00
2011,07,02,08,22,15.10
2011,07,02,08,23,15.20
2011,07,02,08,24,15.30
2011,07,02,08,25,15.30
2011,07,02,08,26,15.30
2011,07,02,08,27,15.30
2011,07,02,08,28,15.30
2011,07,02,08,29,15.30
2011,07,02,08,30,15.30
2011,07,02,08,31,15.30
2011,07,02,08,32,15.30
2011,07,02,08,33,15.30
2011,07,02,08,34,15.40
2011,07,02,08,35,15.50
2011,07,02,08,36,15.50
2011,07,02,08,37,15.60
2011,07,02,08,38,15.60
2011,07,02,08,39,15.70
2011,07,02,08,40,15.70
2011,07,02,08,41,15.70
2011,07,02,08,42,15.70
2011,07,02,08,43,15.80
2011,07,02,08,44,15.80
2011,07,02,08,45,15.90
2011,07,02,08,46,15.90
2011,07,02,08,47,15.90
2011,07,02,08,48,15.90
2011,07,02,08,49,15.90
2011,07,02,08,50,16.00
2011,07,02,08,51,16.00
2011,07,02,08,52,16.00
2011,07,02,08,53,16.00
2011,07,02,08,54,16.00
2011,07,02,08,55,15.90
2011,07,02,08,56,16.00
2011,07,02,08,57,16.00
2011,07,02,08,58,16.10
2011,07,02,08,59,16.20
2011,07,02,09,00,16.20
2011,07,02,09,01,16.30
2011,07,02,09,02,16.20
2011,07,02,09,03,16.20
2011,07,02,09,04,16.20
2011,07,02,09,05,16.20
2011,07,02,09,06,16.20
2011,07,02,09,07,16.20
2011,07,02,09,08,16.20
2011,07,02,09,09,16.20
2011,07,02,09,10,16.20
2011,07,02,09,11,16.20
2011,07,02,09,12,16.20
2011,07,02,09,13,16.20
2011,07,02,09,14,16.20
2011,07,02,09,15,16.10
2011,07,02,09,16,16.20
2011,07,02,09,17,16.20
2011,07,02,09,18,16.20
2011,07,02,09,19,16.20
2011,07,02,09,20,16.30
2011,07,02,09,21,16.30
2011,07,02,09,22,16.30
2011,07,02,09,23,16.40
2011,07,02,09,24,16.40
2011,07,02,09,25,16.50
2011,07,02,09,26,16.60
2011,07,02,09,27,16.60
2011,07,02,09,28,16.60
2011,07,02,09,29,16.60
2011,07,02,09,30,16.60
2011,07,02,09,31,16.60
2011,07,02,09,32,16.60
2011,07,02,09,33,16.60
2011,07,02,09,34,16.60
2011,07,02,09,35,16.60
2011,07,02,09,36,16.70
2011,07,02,09,37,16.70
2011,07,02,09,38,16.70
2011,07,02,09,39,16.70
2011,07,02,09,40,16.70
2011,07,02,09,41,16.80
2011,07,02,09,42,16.80
2011,07,02,09,43,16.80
2011,07,02,09,44,16.80
2011,07,02,09,45,16.80
2011,07,02,09,46,16.80
2011,07,02,09,47,16.80
2011,07,02,09,48,16.90
2011,07,02,09,49,16.90
2011,07,02,09,50,16.90
2011,07,02,09,51,16.90
2011,07,02,09,52,16.90
2011,07,02,09,53,17.00
2011,07,02,09,54,17.10
2011,07,02,09,55,17.10
2011,07,02,09,56,17.10
2011,07,02,09,57,17.20
2011,07,02,09,58,17.10
2011,07,02,09,59,17.00
2011,07,02,10,00,16.90
2011,07,02,10,01,16.90
2011,07,02,10,02,16.90
2011,07,02,10,03,16.90
2011,07,02,10,04,17.00
2011,07,02,10,05,17.20
2011,07,02,10,06,17.20
2011,07,02,10,07,17.30
2011,07,02,10,08,17.40
2011,07,02,10,09,17.50
2011,07,02,10,10,17.50
2011,07,02,10,11,17.60
2011,07,02,10,12,17.70
2011,07,02,10,13,17.80
2011,07,02,10,14,17.80
2011,07,02,10,15,17.80
2011,07,02,10,16,17.90
2011,07,02,10,17,18.00
2011,07,02,10,18,18.00
2011,07,02,10,19,18.10
2011,07,02,10,20,18.00
2011,07,02,10,21,17.90
2011,07,02,10,22,17.90
2011,07,02,10,23,17.90
2011,07,02,10,24,17.90
2011,07,02,10,25,17.90
2011,07,02,10,26,17.90
2011,07,02,10,27,18.00
2011,07,02,10,28,18.10
2011,07,02,10,29,18.20
2011,07,02,10,30,18.20
2011,07,02,10,31,18.30
2011,07,02,10,32,18.30
2011,07,02,10,33,18.40
2011,07,02,10,34,18.40
2011,07,02,10,35,18.30
2011,07,02,10,36,18.20
2011,07,02,10,37,18.20
2011,07,02,10,38,18.20
2011,07,02,10,39,18.20
2011,07,02,10,40,18.30
2011,07,02,10,41,18.30
2011,07,02,10,42,18.40
2011,07,02,10,43,18.40
2011,07,02,10,44,18.50
2011,07,02,10,45,18.60
2011,07,02,10,46,18.50
2011,07,02,10,47,18.50
2011,07,02,10,48,18.50
2011,07,02,10,49,18.50
2011,07,02,10,50,18.60
2011,07,02,10,51,18.60
2011,07,02,10,52,18.70
2011,07,02,10,53,18.80
2011,07,02,10,54,18.90
2011,07,02,10,55,18.90
2011,07,02,10,56,18.90
2011,07,02,10,57,18.90
2011,07,02,10,58,18.90
2011,07,02,10,59,18.90
2011,07,02,11,00,18.90
2011,07,02,11,01,18.90
2011,07,02,11,02,18.90
2011,07,02,11,03,18.80
2011,07,02,11,04,18.80
2011,07,02,11,05,18.70
2011,07,02,11,06,18.60
2011,07,02,11,07,18.50
2011,07,02,11,08,18.50
2011,07,02,11,09,18.40
2011,07,02,11,10,18.40
2011,07,02,11,11,18.50
2011,07,02,11,12,18.50
2011,07,02,11,13,18.60
2011,07,02,11,14,18.60
2011,07,02,11,15,18.70
2011,07,02,11,16,18.60
2011,07,02,11,17,18.60
2011,07,02,11,18,18.60
2011,07,02,11,19,18.60
2011,07,02,11,20,18.50
2011,07,02,11,21,18.60
2011,07,02,11,22,18.60
2011,07,02,11,23,18.60
2011,07,02,11,24,18.70
2011,07,02,11,25,18.80
2011,07,02,11,26,19.00
2011,07,02,11,27,19.10
2011,07,02,11,28,19.20
2011,07,02,11,29,19.30
2011,07,02,11,30,19.40
2011,07,02,11,31,19.40
2011,07,02,11,32,19.40
2011,07,02,11,33,19.40
2011,07,02,11,34,19.40
2011,07,02,11,35,19.40
2011,07,02,11,36,19.40
2011,07,02,11,37,19.30
2011,07,02,11,38,19.30
2011,07,02,11,39,19.30
2011,07,02,11,40,19.30
2011,07,02,11,41,19.30
2011,07,02,11,42,19.20
2011,07,02,11,43,19.10
2011,07,02,11,44,19.10
2011,07,02,11,45,19.10
2011,07,02,11,46,19.00
2011,07,02,11,47,19.00
2011,07,02,11,48,19.00
2011,07,02,11,49,19.10
2011,07,02,11,50,19.00
2011,07,02,11,51,19.00
2011,07,02,11,52,19.00
2011,07,02,11,53,19.00
2011,07,02,11,54,18.90
2011,07,02,11,55,18.90
2011,07,02,11,56,18.90
2011,07,02,11,57,18.90
2011,07,02,11,58,18.90
2011,07,02,11,59,18.80
2011,07,02,12,00,18.90
2011,07,02,12,01,19.00
2011,07,02,12,02,19.10
2011,07,02,12,03,19.30
2011,07,02,12,04,19.40
2011,07,02,12,05,19.40
2011,07,02,12,06,19.50
2011,07,02,12,07,19.50
2011,07,02,12,08,19.60
2011,07,02,12,09,19.60
2011,07,02,12,10,19.70
2011,07,02,12,11,19.90
2011,07,02,12,12,19.90
2011,07,02,12,13,20.00
2011,07,02,12,14,20.00
2011,07,02,12,15,20.00
2011,07,02,12,16,20.00
2011,07,02,12,17,20.00
2011,07,02,12,18,19.90
2011,07,02,12,19,19.90
2011,07,02,12,20,19.90
2011,07,02,12,21,19.90
2011,07,02,12,22,20.00
2011,07,02,12,23,19.90
2011,07,02,12,24,19.90
2011,07,02,12,25,19.90
2011,07,02,12,26,19.80
2011,07,02,12,27,19.80
2011,07,02,12,28,19.70
2011,07,02,12,29,19.70
2011,07,02,12,30,19.70
2011,07,02,12,31,19.70
2011,07,02,12,32,19.70
2011,07,02,12,33,19.70
2011,07,02,12,34,19.70
2011,07,02,12,35,19.70
2011,07,02,12,36,19.70
2011,07,02,12,37,19.80
2011,07,02,12,38,19.80
2011,07,02,12,39,19.70
2011,07,02,12,40,19.70
2011,07,02,12,41,19.70
2011,07,02,12,42,19.60
2011,07,02,12,43,19.60
2011,07,02,12,44,19.60
2011,07,02,12,45,19.60
2011,07,02,12,46,19.50
2011,07,02,12,47,19.50
2011,07,02,12,48,19.50
2011,07,02,12,49,19.50
2011,07,02,12,50,19.60
2011,07,02,12,51,19.60
2011,07,02,12,52,19.70
2011,07,02,12,53,19.80
2011,07,02,12,54,20.00
2011,07,02,12,55,20.10
2011,07,02,12,56,20.10
2011,07,02,12,57,20.00
2011,07,02,12,58,20.00
2011,07,02,12,59,20.00
2011,07,02,13,00,20.10
2011,07,02,13,01,20.20
2011,07,02,13,02,20.20
2011,07,02,13,03,20.30
2011,07,02,13,04,20.30
2011,07,02,13,05,20.30
2011,07,02,13,06,20.30
2011,07,02,13,07,20.30
2011,07,02,13,08,20.30
2011,07,02,13,09,20.20
2011,07,02,13,10,20.20
2011,07,02,13,11,20.20
2011,07,02,13,12,20.10
2011,07,02,13,13,20.10
2011,07,02,13,14,20.10
2011,07,02,13,15,20.10
2011,07,02,13,16,20.20
2011,07,02,13,17,20.30
2011,07,02,13,18,20.30
2011,07,02,13,19,20.40
2011,07,02,13,20,20.40
2011,07,02,13,21,20.40
2011,07,02,13,22,20.30
2011,07,02,13,23,20.40
2011,07,02,13,24,20.40
2011,07,02,13,25,20.50
2011,07,02,13,26,20.50
2011,07,02,13,27,20.50
2011,07,02,13,28,20.60
2011,07,02,13,29,20.70
2011,07,02,13,30,20.70
2011,07,02,13,31,20.70
2011,07,02,13,32,20.70
2011,07,02,13,33,20.80
2011,07,02,13,34,20.80
2011,07,02,13,35,21.00
2011,07,02,13,36,21.10
2011,07,02,13,37,21.20
2011,07,02,13,38,21.20
2011,07,02,13,39,21.30
2011,07,02,13,40,21.40
2011,07,02,13,41,21.50
2011,07,02,13,42,21.60
2011,07,02,13,43,21.60
2011,07,02,13,44,21.50
2011,07,02,13,45,21.50
2011,07,02,13,46,21.60
2011,07,02,13,47,21.60
2011,07,02,13,48,21.70
2011,07,02,13,49,21.80
2011,07,02,13,50,21.80
2011,07,02,13,51,21.80
2011,07,02,13,52,21.70
2011,07,02,13,53,21.60
2011,07,02,13,54,21.60
2011,07,02,13,55,21.60
2011,07,02,13,56,21.50
2011,07,02,13,57,21.50
2011,07,02,13,58,21.50
2011,07,02,13,59,21.60
2011,07,02,14,00,21.60
2011,07,02,14,01,21.70
2011,07,02,14,02,21.70
2011,07,02,14,03,21.80
2011,07,02,14,04,21.80
2011,07,02,14,05,21.80
2011,07,02,14,06,21.80
2011,07,02,14,07,21.70
2011,07,02,14,08,21.60
2011,07,02,14,09,21.60
2011,07,02,14,10,21.50
2011,07,02,14,11,21.50
2011,07,02,14,12,21.40
2011,07,02,14,13,21.40
2011,07,02,14,14,21.40
2011,07,02,14,15,21.40
2011,07,02,14,16,21.40
2011,07,02,14,17,21.40
2011,07,02,14,18,21.50
2011,07,02,14,19,21.50
2011,07,02,14,20,21.60
2011,07,02,14,21,21.50
2011,07,02,14,22,21.50
2011,07,02,14,23,21.40
2011,07,02,14,24,21.30
2011,07,02,14,25,21.20
2011,07,02,14,26,21.20
2011,07,02,14,27,21.10
2011,07,02,14,28,21.10
2011,07,02,14,29,21.10
2011,07,02,14,30,21.10
2011,07,02,14,31,21.10
2011,07,02,14,32,21.10
2011,07,02,14,33,21.10
2011,07,02,14,34,21.10
2011,07,02,14,35,21.20
2011,07,02,14,36,21.30
2011,07,02,14,37,21.40
2011,07,02,14,38,21.40
2011,07,02,14,39,21.40
2011,07,02,14,40,21.40
2011,07,02,14,41,21.30
2011,07,02,14,42,21.30
2011,07,02,14,43,21.30
2011,07,02,14,44,21.30
2011,07,02,14,45,21.30
2011,07,02,14,46,21.40
2011,07,02,14,47,21.40
2011,07,02,14,48,21.40
2011,07,02,14,49,21.30
2011,07,02,14,50,21.20
2011,07,02,14,51,21.10
2011,07,02,14,52,21.00
2011,07,02,14,53,20.90
2011,07,02,14,54,20.90
2011,07,02,14,55,20.80
2011,07,02,14,56,20.80
2011,07,02,14,57,20.80
2011,07,02,14,58,20.80
2011,07,02,14,59,20.80
2011,07,02,15,00,20.80
2011,07,02,15,01,20.80
2011,07,02,15,02,20.80
2011,07,02,15,03,20.90
2011,07,02,15,04,20.90
2011,07,02,15,05,21.00
2011,07,02,15,06,21.00
2011,07,02,15,07,21.00
2011,07,02,15,08,21.00
2011,07,02,15,09,21.00
2011,07,02,15,10,21.10
2011,07,02,15,11,21.10
2011,07,02,15,12,21.20
2011,07,02,15,13,21.20
2011,07,02,15,14,21.20
2011,07,02,15,15,21.20
2011,07,02,15,16,21.20
2011,07,02,15,17,21.20
2011,07,02,15,18,21.20
2011,07,02,15,19,21.20
2011,07,02,15,20,21.20
2011,07,02,15,21,21.20
2011,07,02,15,22,21.20
2011,07,02,15,23,21.30
2011,07,02,15,24,21.30
2011,07,02,15,25,21.30
2011,07,02,15,26,21.30
2011,07,02,15,27,21.30
2011,07,02,15,28,21.30
2011,07,02,15,29,21.30
2011,07,02,15,30,21.30
2011,07,02,15,31,21.20
2011,07,02,15,32,21.20
2011,07,02,15,33,21.30
2011,07,02,15,34,21.30
2011,07,02,15,35,21.30
2011,07,02,15,36,21.20
2011,07,02,15,37,21.20
2011,07,02,15,38,21.20
2011,07,02,15,39,21.20
2011,07,02,15,40,21.20
2011,07,02,15,41,21.30
2011,07,02,15,42,21.40
2011,07,02,15,43,21.30
2011,07,02,15,44,21.30
2011,07,02,15,45,21.30
2011,07,02,15,46,21.30
2011,07,02,15,47,21.30
2011,07,02,15,48,21.20
2011,07,02,15,49,21.30
2011,07,02,15,50,21.50
2011,07,02,15,51,21.50
2011,07,02,15,52,21.60
2011,07,02,15,53,21.50
2011,07,02,15,54,21.50
2011,07,02,15,55,21.60
2011,07,02,15,56,21.70
2011,07,02,15,57,21.60
2011,07,02,15,58,21.60
2011,07,02,15,59,21.70
2011,07,02,16,00,21.80
2011,07,02,16,01,21.80
2011,07,02,16,02,21.90
2011,07,02,16,03,21.90
2011,07,02,16,04,21.90
2011,07,02,16,05,21.90
2011,07,02,16,06,21.90
2011,07,02,16,07,21.80
2011,07,02,16,08,21.80
2011,07,02,16,09,21.80
2011,07,02,16,10,22.00
2011,07,02,16,11,22.10
2011,07,02,16,12,22.30
2011,07,02,16,13,22.60
2011,07,02,16,14,22.70
2011,07,02,16,15,22.70
2011,07,02,16,16,22.70
2011,07,02,16,17,22.80
2011,07,02,16,18,22.90
2011,07,02,16,19,22.80
2011,07,02,16,20,22.80
2011,07,02,16,21,22.80
2011,07,02,16,22,22.70
2011,07,02,16,23,22.60
2011,07,02,16,24,22.60
2011,07,02,16,25,22.50
2011,07,02,16,26,22.40
2011,07,02,16,27,22.40
2011,07,02,16,28,22.50
2011,07,02,16,29,22.50
2011,07,02,16,30,22.60
2011,07,02,16,31,22.70
2011,07,02,16,32,22.70
2011,07,02,16,33,22.80
2011,07,02,16,34,22.70
2011,07,02,16,35,22.70
2011,07,02,16,36,22.50
2011,07,02,16,37,22.50
2011,07,02,16,38,22.40
2011,07,02,16,39,22.30
2011,07,02,16,40,22.20
2011,07,02,16,41,22.10
2011,07,02,16,42,22.00
2011,07,02,16,43,21.90
2011,07,02,16,44,21.80
2011,07,02,16,45,21.80
2011,07,02,16,46,21.80
2011,07,02,16,47,21.70
2011,07,02,16,48,21.60
2011,07,02,16,49,21.50
2011,07,02,16,50,21.60
2011,07,02,16,51,21.50
2011,07,02,16,52,21.50
2011,07,02,16,53,21.60
2011,07,02,16,54,21.60
2011,07,02,16,55,21.50
2011,07,02,16,56,21.50
2011,07,02,16,57,21.40
2011,07,02,16,58,21.50
2011,07,02,16,59,21.60
2011,07,02,17,00,21.60
2011,07,02,17,01,21.70
2011,07,02,17,02,21.80
2011,07,02,17,03,21.80
2011,07,02,17,04,21.80
2011,07,02,17,05,21.80
2011,07,02,17,06,21.90
2011,07,02,17,07,21.90
2011,07,02,17,08,21.80
2011,07,02,17,09,21.80
2011,07,02,17,10,21.80
2011,07,02,17,11,21.70
2011,07,02,17,12,21.60
2011,07,02,17,13,21.60
2011,07,02,17,14,21.60
2011,07,02,17,15,21.60
2011,07,02,17,16,21.70
2011,07,02,17,17,21.70
2011,07,02,17,18,21.80
2011,07,02,17,19,21.80
2011,07,02,17,20,21.80
2011,07,02,17,21,21.80
2011,07,02,17,22,21.80
2011,07,02,17,23,21.80
2011,07,02,17,24,21.80
2011,07,02,17,25,21.80
2011,07,02,17,26,21.80
2011,07,02,17,27,21.90
2011,07,02,17,28,21.90
2011,07,02,17,29,21.90